| time (UTC) | temp C | wind direction | speed KPH | gust KPH | rain 1hr cm | rain 24hr cm | rain mn cm | humidity % | barometer mb |
| 20260905004549 | 32 | 0 | 0.0 | 0.0 | 0.00 | 0.00 | 0.00 | 50 | 1013.5 |
| 20260905003053 | 33 | 0 | 0.0 | 0.0 | 0.00 | 0.00 | 0.00 | 46 | 1013.3 |
| 20260905001557 | 34 | 0 | 0.0 | 1.6 | 0.00 | 0.00 | 0.00 | 44 | 1013.3 |
| 20260905000047 | 35 | 0 | 0.0 | 1.6 | 0.00 | 0.00 | 0.00 | 43 | 1013.4 |
| 20260904234546 | 35 | 0 | 0.0 | 6.4 | 0.00 | 0.00 | 0.00 | 42 | 1013.4 |
| 20260904233053 | 35 | 0 | 0.0 | 6.4 | 0.00 | 0.00 | 0.00 | 41 | 1013.4 |
| 20260904231552 | 35 | 0 | 0.0 | 4.8 | 0.00 | 0.00 | 0.00 | 41 | 1013.4 |
| 20260904230048 | 36 | 193 | 1.6 | 8.0 | 0.00 | 0.00 | 0.00 | 39 | 1013.4 |
| 20260904224547 | 37 | 0 | 0.0 | 3.2 | 0.00 | 0.00 | 0.00 | 37 | 1013.4 |
| 20260904223053 | 37 | 0 | 0.0 | 8.0 | 0.00 | 0.00 | 0.00 | 38 | 1013.6 |
| 20260904221554 | 38 | 137 | 0.0 | 12.9 | 0.00 | 0.00 | 0.00 | 36 | 1013.6 |
| 20260904220050 | 39 | 0 | 0.0 | 8.0 | 0.00 | 0.00 | 0.00 | 35 | 1013.6 |
| 20260904214555 | 38 | 240 | 0.0 | 9.7 | 0.00 | 0.00 | 0.00 | 36 | 1013.7 |
| 20260904213057 | 38 | 134 | 0.0 | 6.4 | 0.00 | 0.00 | 0.00 | 35 | 1013.9 |
| 20260904211550 | 38 | 0 | 1.6 | 6.4 | 0.00 | 0.00 | 0.00 | 36 | 1013.9 |
| 20260904210054 | 38 | 0 | 0.0 | 9.7 | 0.00 | 0.00 | 0.00 | 38 | 1014.0 |
| 20260904204554 | 38 | 0 | 1.6 | 8.0 | 0.00 | 0.00 | 0.00 | 39 | 1014.3 |
| 20260904203058 | 38 | 0 | 0.0 | 6.4 | 0.00 | 0.00 | 0.00 | 39 | 1014.4 |
| 20260904201545 | 37 | 0 | 0.0 | 8.0 | 0.00 | 0.00 | 0.00 | 40 | 1014.5 |
| 20260904200053 | 38 | 196 | 0.0 | 6.4 | 0.00 | 0.00 | 0.00 | 40 | 1015.0 |
| 20260904194607 | 37 | 0 | 1.6 | 9.7 | 0.00 | 0.00 | 0.00 | 41 | 1015.0 |
| 20260904193046 | 37 | 105 | 3.2 | 9.7 | 0.00 | 0.00 | 0.00 | 43 | 1015.1 |
| 20260904191553 | 37 | 207 | 1.6 | 11.3 | 0.00 | 0.00 | 0.00 | 42 | 1015.3 |
| 20260904190053 | 37 | 140 | 1.6 | 9.7 | 0.00 | 0.00 | 0.00 | 43 | 1015.5 |
| 20260904184548 | 37 | 0 | 1.6 | 9.7 | 0.00 | 0.00 | 0.00 | 43 | 1015.7 |
| 20260904183112 | 37 | 0 | 3.2 | 11.3 | 0.00 | 0.00 | 0.00 | 42 | 1015.9 |
| 20260904181606 | 37 | 198 | 0.0 | 6.4 | 0.00 | 0.00 | 0.00 | 43 | 1016.2 |
| 20260904180049 | 36 | 208 | 1.6 | 11.3 | 0.00 | 0.00 | 0.00 | 44 | 1016.2 |
| 20260904174601 | 36 | 247 | 0.0 | 8.0 | 0.00 | 0.00 | 0.00 | 47 | 1016.4 |
| 20260904173054 | 36 | 227 | 1.6 | 8.0 | 0.00 | 0.00 | 0.00 | 46 | 1016.5 |
| 20260904171547 | 36 | 215 | 1.6 | 9.7 | 0.00 | 0.00 | 0.00 | 48 | 1016.8 |
| 20260904170045 | 35 | 190 | 0.0 | 6.4 | 0.00 | 0.00 | 0.00 | 49 | 1016.9 |
| 20260904164547 | 35 | 163 | 0.0 | 9.7 | 0.00 | 0.00 | 0.00 | 51 | 1017.2 |
| 20260904163051 | 34 | 124 | 1.6 | 8.0 | 0.00 | 0.00 | 0.00 | 52 | 1017.2 |
| 20260904161546 | 33 | 211 | 0.0 | 6.4 | 0.00 | 0.00 | 0.00 | 55 | 1017.2 |
| 20260904160045 | 33 | 238 | 0.0 | 4.8 | 0.00 | 0.00 | 0.00 | 54 | 1017.2 |
| 20260904154548 | 33 | 0 | 1.6 | 6.4 | 0.00 | 0.00 | 0.00 | 56 | 1017.2 |
| 20260904153053 | 32 | 0 | 1.6 | 6.4 | 0.00 | 0.00 | 0.00 | 59 | 1017.1 |
| 20260904151547 | 32 | 181 | 0.0 | 6.4 | 0.00 | 0.00 | 0.00 | 61 | 1017.2 |
| 20260904150045 | 31 | 189 | 0.0 | 4.8 | 0.00 | 0.00 | 0.00 | 62 | 1017.3 |
| 20260904144555 | 31 | 193 | 0.0 | 8.0 | 0.00 | 0.00 | 0.00 | 64 | 1017.2 |
| 20260904143058 | 30 | 0 | 0.0 | 4.8 | 0.00 | 0.00 | 0.00 | 66 | 1017.3 |
| 20260904141550 | 29 | 0 | 0.0 | 6.4 | 0.00 | 0.00 | 0.00 | 67 | 1017.3 |
| 20260904140047 | 28 | 0 | 0.0 | 3.2 | 0.00 | 0.00 | 0.00 | 70 | 1017.2 |
| 20260904134600 | 27 | 0 | 0.0 | 1.6 | 0.00 | 0.00 | 0.00 | 72 | 1017.0 |
| 20260904133048 | 26 | 0 | 0.0 | 0.0 | 0.00 | 0.00 | 0.00 | 75 | 1017.0 |
| 20260904131544 | 25 | 0 | 0.0 | 1.6 | 0.00 | 0.00 | 0.00 | 76 | 1016.9 |
| 20260904130054 | 24 | 0 | 0.0 | 0.0 | 0.00 | 0.00 | 0.00 | 78 | 1016.6 |
| 20260904124548 | 23 | 0 | 0.0 | 0.0 | 0.00 | 0.00 | 0.00 | 81 | 1016.5 |
| 20260904123057 | 22 | 0 | 0.0 | 0.0 | 0.00 | 0.00 | 0.00 | 85 | 1016.5 |
| 20260904121558 | 21 | 0 | 0.0 | 0.0 | 0.00 | 0.00 | 0.00 | 86 | 1016.6 |
| 20260904120055 | 21 | 0 | 0.0 | 0.0 | 0.00 | 0.00 | 0.00 | 85 | 1016.6 |
| 20260904114548 | 21 | 0 | 0.0 | 0.0 | 0.00 | 0.00 | 0.00 | 84 | 1016.6 |
| 20260904113047 | 21 | 0 | 0.0 | 0.0 | 0.00 | 0.00 | 0.00 | 84 | 1016.4 |
| 20260904111602 | 21 | 0 | 0.0 | 0.0 | 0.00 | 0.00 | 0.00 | 84 | 1016.2 |
| 20260904110055 | 21 | 0 | 0.0 | 0.0 | 0.00 | 0.00 | 0.00 | 84 | 1016.0 |
| 20260904104556 | 22 | 0 | 0.0 | 0.0 | 0.00 | 0.00 | 0.00 | 83 | 1016.0 |
| 20260904103056 | 22 | 0 | 0.0 | 0.0 | 0.00 | 0.00 | 0.00 | 81 | 1015.9 |
| 20260904101602 | 22 | 0 | 0.0 | 0.0 | 0.00 | 0.00 | 0.00 | 80 | 1015.9 |
| 20260904100059 | 22 | 0 | 0.0 | 0.0 | 0.00 | 0.00 | 0.00 | 80 | 1015.8 |
| 20260904094604 | 22 | 0 | 0.0 | 0.0 | 0.00 | 0.00 | 0.00 | 81 | 1015.6 |
| 20260904093059 | 22 | 0 | 0.0 | 0.0 | 0.00 | 0.00 | 0.00 | 81 | 1015.6 |
| 20260904091553 | 22 | 0 | 0.0 | 0.0 | 0.00 | 0.00 | 0.00 | 80 | 1015.4 |
| 20260904090049 | 23 | 0 | 0.0 | 0.0 | 0.00 | 0.00 | 0.00 | 79 | 1015.4 |
| 20260904084547 | 23 | 0 | 0.0 | 0.0 | 0.00 | 0.00 | 0.00 | 78 | 1015.2 |
| 20260904083056 | 23 | 0 | 0.0 | 0.0 | 0.00 | 0.00 | 0.00 | 78 | 1015.1 |
| 20260904081549 | 23 | 0 | 0.0 | 0.0 | 0.00 | 0.00 | 0.00 | 78 | 1015.1 |
| 20260904080058 | 23 | 0 | 0.0 | 0.0 | 0.00 | 0.00 | 0.00 | 77 | 1015.1 |
| 20260904074559 | 23 | 0 | 0.0 | 0.0 | 0.00 | 0.00 | 0.00 | 76 | 1015.1 |
| 20260904073044 | 23 | 0 | 0.0 | 0.0 | 0.00 | 0.00 | 0.00 | 75 | 1015.1 |
| 20260904071603 | 24 | 0 | 0.0 | 0.0 | 0.00 | 0.00 | 0.00 | 75 | 1015.1 |
| 20260904070048 | 24 | 0 | 0.0 | 0.0 | 0.00 | 0.00 | 0.00 | 74 | 1015.2 |
| 20260904064546 | 25 | 0 | 0.0 | 0.0 | 0.00 | 0.00 | 0.00 | 72 | 1015.2 |
| 20260904063051 | 25 | 0 | 0.0 | 0.0 | 0.00 | 0.00 | 0.00 | 71 | 1015.1 |
| 20260904061547 | 26 | 0 | 0.0 | 3.2 | 0.00 | 0.00 | 0.00 | 70 | 1015.1 |
| 20260904060056 | 26 | 0 | 0.0 | 0.0 | 0.00 | 0.00 | 0.00 | 70 | 1014.7 |
| 20260904054554 | 26 | 0 | 0.0 | 1.6 | 0.00 | 0.00 | 0.00 | 70 | 1014.7 |
| 20260904053048 | 26 | 0 | 0.0 | 1.6 | 0.00 | 0.00 | 0.00 | 70 | 1014.9 |
| 20260904051547 | 25 | 0 | 0.0 | 1.6 | 0.00 | 0.00 | 0.00 | 71 | 1015.0 |
| 20260904050055 | 25 | 0 | 0.0 | 0.0 | 0.00 | 0.00 | 0.00 | 71 | 1014.9 |
| 20260904044552 | 25 | 0 | 0.0 | 0.0 | 0.00 | 0.00 | 0.00 | 70 | 1015.0 |
| 20260904043105 | 26 | 0 | 0.0 | 0.0 | 0.00 | 0.00 | 0.00 | 69 | 1015.0 |
| 20260904041550 | 26 | 0 | 0.0 | 0.0 | 0.00 | 0.00 | 0.00 | 69 | 1014.9 |
| 20260904040055 | 26 | 0 | 0.0 | 0.0 | 0.00 | 0.00 | 0.00 | 69 | 1014.9 |
| 20260904034546 | 26 | 0 | 0.0 | 0.0 | 0.00 | 0.00 | 0.00 | 69 | 1014.9 |
| 20260904033047 | 26 | 0 | 0.0 | 0.0 | 0.00 | 0.00 | 0.00 | 68 | 1014.9 |
| 20260904031556 | 26 | 0 | 0.0 | 0.0 | 0.00 | 0.00 | 0.00 | 66 | 1014.9 |
| 20260904030049 | 27 | 0 | 0.0 | 0.0 | 0.00 | 0.00 | 0.00 | 65 | 1014.7 |
| 20260904024549 | 27 | 0 | 0.0 | 0.0 | 0.00 | 0.00 | 0.00 | 64 | 1014.5 |
| 20260904023045 | 27 | 0 | 0.0 | 0.0 | 0.00 | 0.00 | 0.00 | 63 | 1014.3 |
| 20260904021556 | 28 | 0 | 0.0 | 0.0 | 0.00 | 0.00 | 0.00 | 62 | 1013.9 |
| 20260904020050 | 28 | 0 | 0.0 | 0.0 | 0.00 | 0.00 | 0.00 | 60 | 1013.8 |
| 20260904014551 | 29 | 0 | 0.0 | 0.0 | 0.00 | 0.00 | 0.00 | 58 | 1013.6 |
| 20260904013048 | 30 | 0 | 0.0 | 0.0 | 0.00 | 0.00 | 0.00 | 55 | 1013.4 |
| 20260904011555 | 31 | 0 | 0.0 | 0.0 | 0.00 | 0.00 | 0.00 | 53 | 1013.2 |
| 20260904010056 | 31 | 0 | 0.0 | 0.0 | 0.00 | 0.00 | 0.00 | 52 | 1013.1 |